Regional Weather Roundup
Issued by NWS

Home | Current Version | Previous Version | Graphics & Text | Print | Product List | Glossary On
Versions: 1 2 3 4 5 6 7 8 9 10 11 12 13 14 15 16 17 18 19 20 21 22 23 24 25 26 27 28 29 30 31 32 33 34 35 36 37 38 39 40 41 42 43 44 45 46 47 48 49 50
000
ASUS45 KTFX 200119
RWRMT
MONTANA HOURLY WEATHER ROUNDUP
NATIONAL WEATHER SERVICE GREAT FALLS MT
619 PM MST FRI DEC 19 2014

NOTE: "FAIR" INDICATES FEW OR NO CLOUDS BELOW 12000 FEET WITH NO
SIGNIFICANT WEATHER AND/OR OBSTRUCTIONS TO VISIBILITY.

* THESE STATIONS ARE NOT UNDER NWS QUALITY CONTROL. THEY DO NOT
   REPORT WEATHER SUCH AS PRECIPITATION OR FOG.

MTZ001>007-043-200200-
WEST OF THE DIVIDE
CITY           SKY/WX    TMP DP  RH WIND       PRES   REMARKS
KALISPELL      FOG       36  34  92 SE12      29.89S WCI  28
MISSOULA       FOG       32  30  92 CALM      29.96R
BUTTE          CLOUDY    34  28  79 CALM      29.91S
MULLAN PASS    LGT SNOW  30  27  89 VRB3      29.88R VSB 1/2
* ESSEX        N/A       32  31  96 N/A        N/A
* EUREKA APT   CLOUDY    39  34  82 S9        29.88R WCI  33
* HAMILTON APT MOCLDY    37  34  89 SW8       29.92S WCI  31
* LIBBY APT    CLOUDY   N/A N/A N/A CALM      29.93R VSB M1/4
* LINCOLN      N/A       33  32  96 W3         N/A
* LOOKOUT PASS N/A       31  31 100 NE4        N/A
* POLSON       N/A       34  34 100 SE1        N/A
* RONAN APT    CLOUDY    34  34 100 E7         N/A   WCI  28
* SEELEY LAKE  N/A       31  30  96 N/A        N/A
* THOMP F APT  CLOUDY    28  27  96 SE9        N/A   WCI  19
$$

MTZ008-052>055-200200-
SOUTHWEST MONTANA
CITY           SKY/WX    TMP DP  RH WIND       PRES   REMARKS
BOZEMAN        CLOUDY    34  27  76 SE3       29.92R
DILLON         CLOUDY    34  27  76 SW8       29.93S WCI  27
* W YELLOWSTON CLOUDY    28  25  89 SW3G13     N/A
* THREE FORKS  CLOUDY    39  39 100 SW15G20    N/A   WCI  31
* BOULDER HILL N/A       34  25  70 S10        N/A   WCI  26
* MONIDA PASS  N/A       26  26 100 SE12G20    N/A   WCI  15
* RAYNOLDS PAS N/A       28  10  47 SE11       N/A   WCI  18
* WHITEHALL    N/A       38  28  67 SW13G24    N/A   WCI  30
* WISE RIVER   N/A       31  30  96 SW2        N/A
$$

MTZ009>010-012-014-046-048-049-054-200200-
EAST SLOPES AND CENTRAL MONTANA
CITY           SKY/WX    TMP DP  RH WIND       PRES   REMARKS
GREAT FALLS    CLOUDY    41  28  60 SW12      29.80R
HELENA         CLOUDY    36  28  73 S3        29.88R
MALMSTROM AFB  CLOUDY    37  30  76 SW14      29.81S WCI  28
* CONRAD       CLOUDY    36  34  92 S9         N/A   WCI  29
* DEARBORN     N/A       44  29  56 S7G12      N/A
* EAST GLACIER N/A       34  30  85 W16        N/A   WCI  24
* MONARCH      N/A       38  20  48 SW12G19    N/A   WCI  30
* PENDROY      N/A       37  29  73 NW8        N/A   WCI  31
* ROGERS PASS  N/A       32  29  89 SE12G18    N/A   WCI  23
* SWEET GRASS  N/A       38  31  76 W20G27     N/A   WCI  28
* WHITE SULPH  N/A       35  28  76 S5G15      N/A   WCI  31
$$

MTZ011-013-016-021-035-040-045-047-050-051-200200-
NORTH CENTRAL MONTANA
CITY           SKY/WX    TMP DP  RH WIND       PRES   REMARKS
HAVRE          CLOUDY    25  25 100 CALM      29.78S
LEWISTOWN      CLOUDY    36  27  70 VRB5      29.82R WCI  32
* N BAR RANCH  CLEAR     32  25  75 W3        29.83S
* CHINOOK      CLOUDY    30  27  89 E7        29.79F WCI  23
* CHESTER      N/A       28  25  89 N2G7       N/A
* DENTON       N/A       35  30  82 SW1        N/A
* GEYSER       N/A       40  26  57 SW11       N/A   WCI  33
* JUDITH GAP   N/A       40  25  55 SW16G26    N/A   WCI  32
* LOMA         N/A       34  29  82 NE6        N/A   WCI  29
$$

MTZ017>020-022>027-061-062-200200-
NORTHEAST MONTANA
CITY           SKY/WX    TMP DP  RH WIND       PRES   REMARKS
GLASGOW        MOCLDY    28  25  89 E10       29.84F WCI  19
GLENDIVE       CLEAR     28  21  75 SW6       29.89S WCI  21
JORDAN         CLOUDY    28  23  81 CALM      29.85F
SIDNEY         CLEAR     25  21  85 CALM      29.91S
WOLF POINT     PTCLDY    27  21  78 NE3       29.88S
* BEAVER HILL  N/A       34  23  64 S6         N/A   WCI  29
* CIRCLE       N/A       35  27  73 S2         N/A
* LINDSAY DVD  N/A       34  26  73 SW3G8      N/A
* NAVAJO       N/A       25  24  96 N/A        N/A
* PLENTYWOOD A CLEAR     19  18  96 CALM      29.88F
* POPLAR APT   CLEAR     28  27  96 CALM      29.88F
* SACO         N/A       28  26  92 E7         N/A   WCI  21
$$

MTZ028>042-056>058-200200-
SOUTHCENTRAL AND SOUTHEAST MONTANA
CITY           SKY/WX    TMP DP  RH WIND       PRES   REMARKS
BAKER          CLEAR     27  21  78 S3        29.90S
BILLINGS       MOCLDY    36  19  50 SW16      29.87R WCI  26
LIVINGSTON     CLOUDY    43  25  49 SW23G37   29.87R
MILES CITY     MOCLDY    36  23  59 CALM      29.88S
* FORSYTH APT  MOCLDY    30  21  69 CALM      29.87F
* LAUREL APT   PTCLDY    36  14  40 S6         N/A   WCI  31
* ROUNDUP APT  CLOUDY    39  19  45 S7         N/A   WCI  34
* ALZADA       N/A       33  20  59 N/A        N/A
* HYSHAM       N/A       36  19  50 W2         N/A
* LAME DEER    N/A       34  20  57 SW6        N/A   WCI  29
* REED POINT   N/A       32  20  61 E1         N/A
* ROSCOE HILL  N/A       42  12  29 SW13G26    N/A
$$

REGIONAL REPORTS...DAKOTAS
CITY           SKY/WX    TMP DP  RH WIND       PRES   REMARKS
WILLISTON      FOG       21  19  92 N6        29.92R VSB 1/2  WCI  13
DICKINSON      PTCLDY    30  23  75 S3        29.88S
BEACH          CLEAR     27  25  92 S6        29.90S WCI  20
CROSBY         FOG       23  23 100 S5        29.92F VSB M1/4 WCI  16
TIOGA          FOG       21  21 100 E3        29.93S VSB M1/4
WATFORD CITY   CLEAR     21  21 100 N3        29.88S
BISMARCK       CLEAR     27  25  92 NE6       29.95S WCI  20
GRAND FORKS    FOG       28  27  96 SE6       30.01F WCI  21
FARGO          FOG       32  28  85 S12       30.03S WCI  23
BUFFALO SD     CLEAR     36  21  54 W5        29.84S WCI  32
RAPID CITY     CLEAR     34  25  70 CALM      29.93S
$$

REGIONAL REPORTS...WYOMING/IDAHO/WASHINGTON
CITY           SKY/WX    TMP DP  RH WIND       PRES   REMARKS
GILLETTE       MOCLDY    30  21  69 S6        29.90F WCI  24
SHERIDAN       CLOUDY    30  21  69 CALM      29.86F
CODY           CLOUDY    25  21  85 CALM      29.91R
YELLOWSTONE LA MOCLDY    27  21  78 CALM      30.02S
SALMON         CLOUDY    32  27  82 N5        29.98S WCI  27
MULLAN PASS    LGT SNOW  30  27  89 VRB3      29.88S VSB 1/2
SAND POINT     CLOUDY    37  37 100 S5        29.94R WCI  33
SPOKANE        CLOUDY    39  36  89 SW15      29.94R WCI  31
$$

REGIONAL REPORTS...ALBERTA
CITY           SKY/WX    TMP DP  RH WIND       PRES   REMARKS
CALGARY        CLOUDY    43  25  49 W10G17    29.63S
LETHBRIDGE     CLOUDY    39  32  76 SW20      29.71R WCI  29
MEDICINE HAT   CLOUDY    34  30  85 S7        29.70F WCI  28
EDMONTON       CLOUDY    18  16  92 VRB2      29.69R
WATERTON GATE  N/A       36  30  79 SW8        N/A   WCI  30
CARDSTON       N/A       37  32  82 S10        N/A   WCI  30
MILK RIVER     N/A       37  32  82 W6         N/A   WCI  32
$$

REGIONAL REPORTS...SASKATCHEWAN
CITY           SKY/WX    TMP DP  RH WIND       PRES   REMARKS
SWIFT CURRENT  PTCLDY    25  23  92 S10       29.77F WCI  15
REGINA         FOG       16  14  92 SE8       29.91F WCI   5
VAL MARIE      N/A       18  18 100 E1         N/A
ASSINIBOIA     N/A       14  12  92 SE6        N/A   WCI   5
CORONACH       N/A       19  18  96 E3         N/A

$$



USA.gov is the U.S. government's official web portal to all federal, state and local government web resources and services.